Dewpoint
74 74 73 73 73 73 74 73 73 73 74 73 71 72 73 75 76 76 76 77 76 76 76 77 76 76 74 76 77 76 75 75 75 75 75 74 73 71 68 70 70 69
73 74 74 73 73 75 75 74 75 74 75 75 74 73 74 75 75 76 76 76 76 75 76 75 76 76 76 75 76 76 77 77 75 73 75 76 74 71 70 70 69 70
72 73 72 72 70 72 71 73 75 74 73 72 73 75 73 73 75 76 77 76 75 74 76 76 76 76 76 77 77 76 75 78 76 74 76 76 74 73 73 69 69 71
73 72 71 70 70 71 72 73 74 74 74 73 73 72 72 70 74 74 76 76 76 76 75 75 75 75 76 76 77 76 77 77 76 78 78 77 76 74 73 74 71 71
71 72 71 71 71 72 73 72 71 71 72 73 72 74 73 75 74 74 75 75 76 75 76 76 75 75 76 77 77 76 76 75 76 78 77 77 78 77 74 73 74 72
72 73 72 71 72 73 71 71 72 71 72 71 72 72 72 73 73 73 73 73 72 72 72 73 74 74 74 77 77 77 75 72 73 78 77 77 75 74 73 75 76 74
70 71 70 70 70 71 71 72 72 73 71 71 73 72 73 72 72 73 74 73 71 73 71 74 75 75 75 77 77 77 76 75 76 77 76 75 77 76 74 74 75 74
70 69 70 69 68 69 70 70 72 73 74 73 72 73 73 72 73 72 73 73 72 73 74 74 75 76 73 74 75 76 76 73 74 76 76 75 75 76 75 72 74 74
69 68 69 69 67 67 66 66 69 71 73 73 70 70 72 73 72 71 74 75 74 74 76 75 76 75 74 75 75 76 76 74 72 74 74 74 73 74 74 74 73 74
69 68 66 67 66 66 65 65 64 67 70 70 69 68 69 72 72 72 74 76 74 75 76 76 76 75 74 74 75 75 75 74 74 73 72 72 72 72 70 71 71 73
67 67 66 66 65 63 64 64 64 64 67 68 67 67 68 70 72 73 74 75 72 74 75 76 75 75 75 73 74 74 74 72 73 73 73 72 72 72 72 72 71 70
71 69 67 67 65 63 63 64 64 64 65 66 66 67 68 68 70 71 71 73 73 73 74 76 75 76 76 75 73 72 72 71 71 72 71 71 70 68 69 70 69 70
73 69 69 67 68 67 64 65 65 64 64 64 65 65 66 66 65 69 70 70 72 71 70 73 74 73 75 75 73 72 72 72 70 69 69 69 69 67 66 66 66 66
74 74 73 72 71 72 70 68 66 66 67 67 67 67 65 64 64 64 67 69 69 69 70 71 72 72 74 75 74 72 71 71 71 70 68 67 67 68 67 65 65 64
74 74 74 74 74 75 74 72 70 70 71 71 71 68 64 64 65 64 65 66 68 69 70 69 67 69 70 72 72 72 71 70 70 70 69 68 68 66 66 67 66 65
74 74 74 74 74 74 74 74 73 73 71 72 71 71 70 70 69 68 66 66 67 69 70 68 67 66 73 76 75 72 71 68 69 71 71 70 70 70 67 66 65 64
74 73 74 74 74 75 75 74 74 73 73 73 73 73 73 74 73 70 68 65 65 67 67 66 65 64 76 69 70 72 73 72 72 73 74 73 71 72 71 68 67 66
74 74 73 73 74 75 74 75 75 75 74 75 73 72 74 72 71 72 72 70 67 67 66 65 64 67 65 67 69 69 72 72 70 69 68 69 70 69 69 68 67 66
73 73 73 73 74 74 74 74 74 74 74 74 74 74 73 73 73 71 72 72 71 71 69 67 67 64 64 66 65 66 66 71 69 68 67 66 67 69 69 70 71 69
73 73 73 73 73 73 73 73 73 73 74 74 74 75 74 73 72 73 73 74 73 73 73 71 72 64 62 64 64 64 65 67 70 68 68 67 68 68 67 68 71 72
72 72 73 73 72 73 73 73 73 73 73 74 74 74 74 73 74 73 73 73 73 72 72 70 66 61 61 61 61 62 63 66 70 69 68 68 69 69 72 70 71 71
70 71 71 71 71 71 72 72 72 72 72 73 74 74 73 74 73 72 73 73 73 73 72 71 65 58 59 59 60 60 63 70 72 73 73 71 70 72 72 74 73 74
69 69 69 70 70 70 70 70 71 71 72 73 72 73 73 74 72 72 73 73 73 74 73 71 67 60 57 56 57 58 64 73 74 73 73 71 71 72 73 73 73 74
67 68 68 69 69 70 70 70 71 72 72 71 71 71 72 71 71 71 72 72 72 72 71 69 67 62 56 55 55 56 66 74 74 74 73 72 72 73 73 73 73 74
66 67 68 68 69 69 70 70 70 70 70 70 70 69 69 70 71 71 70 69 68 67 68 68 68 64 56 55 54 54 64 73 74 74 73 72 72 73 73 73 74 75
66 68 69 69 69 69 69 69 69 69 69 69 68 67 67 70 70 70 69 68 68 68 67 67 67 65 62 54 53 53 55 69 72 72 72 72 71 72 72 72 74 73